Location: Koussan�
(15.2012°N, 12.5548°W)
Time: 18:17:59
(UTC+00:00)

Cosmos 1825 Rocket - Pass Details

Date: 20 October 2020
Orbit: 603 x 631 km, 82.5° (Epoch: 30 November)

Event Time Altitude Azimuth Distance (km) Brightness Sun altitude
Rises 19:37:51 0° 356° (N) 2,903 7.0 -17.8°
Reaches altitude 10° 19:40:05 10° 356° (N) 1,993 6.1 -18.4°
Maximum altitude 19:44:30 88° 84° (E) 624 3.4 -19.4°
Drops below altitude 10° 19:48:53 10° 175° (S) 1,973 6.1 -20.5°
Sets 19:51:05 0° 176° (S) 2,872 7.0 -21.0°
